Flag for United Kingdom Weather past 2 weeks in Lerwick (Shetland Islands), Scotland, United Kingdom

Now
39 °F

Passing clouds.


Feels Like: 31 °F
Forecast: 38 / 43 °F
Wind: 14 mph from Southwest

Location: Lerwick

Current Time: Apr 27, 2015 at 8:43:43 PM

Latest Report: Apr 27, 2015 at 8:00 PM


Visibility: 16 mi

Pressure: 29.62 "Hg

Humidity: 74%

Dew point: 32 °F

Location of Lerwick (Shetland Islands)Location

Historic Weather in Lerwick (Shetland Islands) — Graph

°F

Lerwick (Shetland Islands) temperature yesterday

Maximum temperature yesterday: 42 °F (at 4:00 PM)
Minimum temperature yesterday: 36 °F (at 6:00 AM)
Average temperature yesterday: 39 °F

Past Weeks' High & Low Weather Summary

 TemperatureHumidityPressure
High50 °F (Apr 14, 3:00 PM)99% (Apr 21, 4:00 PM)30.53 "Hg (Apr 21, 4:00 PM)
Low33 °F (Apr 25, 7:00 AM)52% (Apr 27, 7:00 PM)29.32 "Hg (Apr 25, 10:00 AM)
Average43 °F84%30.01 "Hg
* Reported Apr 12 7:00 PM — Apr 27 7:00 PM, Lerwick (Shetland Islands), Weather by CustomWeather, © 2015

Note: Actual official high and low records may vary slightly from our data, if they occured in-between our weather recording intervals... More about our weather records

Advertising

Lerwick (Shetland Islands) weather history for previous 24 hours

 ConditionsComfort  
Time TempWeatherWind HumidityBarometerVisibility
7:00 PM
Mon, Apr 27
42 °FQuite cool.18 mph52%29.61 "Hg19 mi
6:00 PM43 °FPassing clouds.20 mph56%29.60 "Hg19 mi
5:00 PM41 °FScattered clouds.20 mph62%29.61 "Hg18 mi
4:00 PM42 °FQuite cool.23 mph68%29.61 "Hg28 mi
3:00 PM43 °FScattered clouds.21 mph63%29.61 "Hg28 mi
2:00 PM37 °FScattered clouds.22 mph81%29.62 "Hg19 mi
1:00 PM42 °FScattered clouds.23 mph68%29.60 "Hg31 mi
12:00 PM38 °FPartly sunny.21 mph82%29.60 "Hg18 mi
11:00 AM42 °FScattered clouds.21 mph65%29.59 "Hg15 mi
10:00 AM41 °FPassing clouds.22 mph55%29.57 "Hg19 mi
9:00 AM41 °FPassing clouds.20 mph53%29.56 "Hg16 mi
8:00 AM39 °FScattered clouds.12 mph65%29.56 "Hg16 mi
7:00 AM34 °FOvercast.6 mph92%29.56 "Hg16 mi
6:00 AM35 °FOvercast.20 mph84%29.54 "Hg4 mi
5:00 AM36 °FPassing clouds.9 mph88%29.54 "Hg19 mi
4:00 AM35 °FLots of rain. Overcast.9 mph91%29.54 "Hg3 mi
3:00 AM38 °FOvercast.20 mph78%29.54 "Hg16 mi
2:00 AM37 °FPassing clouds.14 mph84%29.54 "Hg12 mi
1:00 AM36 °FSprinkles. Overcast.17 mph88%29.56 "Hg11 mi
12:00 AM37 °FPassing clouds.24 mph85%29.55 "Hg16 mi
11:00 PM
Sun, Apr 26
39 °FSleet. Overcast.23 mph72%29.55 "Hg16 mi
10:00 PM38 °FPassing clouds.24 mph71%29.56 "Hg19 mi
9:00 PM37 °FSleet. Overcast.16 mph87%29.57 "Hg12 mi
8:00 PM38 °FChilly.24 mph77%29.58 "Hg19 mi
Weather by CustomWeather, © 2015

See weather overviewHow to use our weather pages